COSMOS 469

导读 | 豆包AI

**COSMOS 469(宇宙469)卫星摘要** COSMOS 469是苏联(今CIS)于1971年12月25日,在拜科努尔发射场使用旋风2号火箭送入太空的US-A雷达海洋侦察卫星,属于冷战时期苏联"宇宙"系列军用卫星。该卫星搭载BES-5核反应堆为主动雷达供电,运行在近地轨道,用于对海上目标进行侦察监视,是苏联早期海洋监视卫星体系的重要组成部分。

Basic Information
目录编号:
5721
目录名称:
COSMOS 469
国际标识:
1971-117A
轨道中心:
EARTH
卫星名称:
COSMOS 469
卫星全名:
--
卫星状态:
在轨 (已飞行19793 天)
发射日期:
1971-12-25 UTC
国别 :
俄罗斯(独联体) (CIS)
星等 :
--
Orbit Information
数据来源 国际轨道数据
星历时间: 2026-03-04T03:35:04+0800
22小时前
查看轨道信息
半长轴: 7355.735km
偏心率: 0.0065221
轨道倾角: 64.486°
近地点辐角 285.974°
升交点赤经 262.849°
平近点角 73.413°
近地点: 929.623km
远地点: 1025.573km
周期: 104.640分钟
每日圈数: 13.761434
Detailed Information
使用方式:
暂无
2D Orbit Map
3D Orbit Map
Orbit Altitude Analysis Chart
Orbit Inclination Analysis Chart
Orbit Comprehensive Analysis Chart
View Comprehensive Chart